Winfield, KS

3:44 PM CDT on October 15, 2019 (GMT -0500)
Strother

Weather History for KWLD - August, 2019

Change the Weather History Date:

Saturday, August 24, 2019

  Actual Average Record
Temperature  
Mean Temperature 76 °F -  
Max Temperature 84 °F 90 °F 106 °F (2011)
Min Temperature 69 °F 67 °F 57 °F (2015)
Cooling Degree Days 12    
Growing Degree Days 26 (Base 50)    
Moisture  
Dew Point 70 °F    
Average Humidity 84    
Maximum Humidity 97    
Minimum Humidity 65    
Precipitation  
Precipitation 0.00 in - - ()
Sea Level Pressure  
Sea Level Pressure 29.98 in    
Wind  
Wind Speed 6 mph ()    
Max Wind Speed 13 mph    
Max Gust Speed -    
Visibility 9.9 miles    
Events      
Averages and records for this station are not official NWS values.
T = Trace of Precipitation, MM = Missing Value Source: Averaged Metar Reports

Daily Weather History Graph

Daily Weather History Graph

Search for Another Location

Airport or City:

Astronomy

Aug. 24, 2019 Rise Set
Actual Time 6:52 AM CDT 8:08 PM CDT
Civil Twilight 6:24 AM CDT 8:35 PM CDT
Nautical Twilight 5:52 AM CDT 9:07 PM CDT
Astronomical Twilight 5:18 AM CDT 9:41 PM CDT
Moon 12:48 AM CDT (8/24) 3:21 PM CDT (8/24)
Length of Visible Light 14h 10m
Length of Day
13h 16m
Last Quarter, 39% of the Moon is Illuminated
Aug 24
Last Quarter
Aug 30
New
Sep 5
First Quarter
Sep 13
Full
Sep 21
Last Quarter

Hourly Weather History & Observations

Time (CDT) Temp. Heat Index Dew Point Humidity Pressure Visibility Wind Dir Wind Speed Gust Speed Precip Events Conditions
12:54 AM 71.1 °F - 66.9 °F 87% 30.02 in 10.0 mi Calm Calm - N/A   Clear
1:42 AM 69.1 °F - 66.9 °F 93% 30.05 in 10.0 mi NNW 3.5 mph - N/A   Mostly Cloudy
1:54 AM 70.0 °F - 68.0 °F 93% 30.01 in 10.0 mi Calm Calm - N/A   Mostly Cloudy
2:54 AM 70.0 °F - 66.9 °F 90% 29.99 in 10.0 mi East 5.8 mph - N/A   Scattered Clouds
3:54 AM 69.1 °F - 66.9 °F 93% 29.99 in 10.0 mi ENE 4.6 mph - N/A   Clear
4:46 AM 69.1 °F - 68.0 °F 96% 30.02 in 10.0 mi East 4.6 mph - N/A   Mostly Cloudy
4:54 AM 69.1 °F - 68.0 °F 96% 29.99 in 10.0 mi East 6.9 mph - N/A   Mostly Cloudy
5:14 AM 69.1 °F - 68.0 °F 96% 30.02 in 10.0 mi East 8.1 mph - N/A   Overcast
5:54 AM 70.0 °F - 69.1 °F 97% 29.99 in 8.0 mi East 8.1 mph - N/A   Overcast
6:54 AM 70.0 °F - 69.1 °F 97% 29.99 in 10.0 mi East 8.1 mph - N/A   Overcast
7:54 AM 71.1 °F - 69.1 °F 93% 29.99 in 10.0 mi East 9.2 mph - N/A   Overcast
8:54 AM 72.0 °F - 69.1 °F 91% 29.99 in 10.0 mi East 8.1 mph - N/A   Overcast
9:54 AM 73.9 °F - 70.0 °F 87% 30.00 in 10.0 mi East 9.2 mph - N/A   Overcast
10:22 AM 75.0 °F - 70.0 °F 84% 30.02 in 10.0 mi East 10.4 mph - N/A   Overcast
10:54 AM 75.9 °F - 70.0 °F 82% 30.00 in 10.0 mi East 8.1 mph - N/A   Overcast
11:17 AM 75.9 °F - 69.1 °F 79% 30.03 in 10.0 mi East 8.1 mph - N/A   Overcast
11:54 AM 78.1 °F - 70.0 °F 76% 29.99 in 10.0 mi East 9.2 mph - N/A   Mostly Cloudy
12:22 PM 78.1 °F - 70.0 °F 76% 30.02 in 10.0 mi East 6.9 mph - N/A   Overcast
12:54 PM 78.1 °F - 70.0 °F 76% 29.99 in 10.0 mi ESE 9.2 mph - N/A   Overcast
1:54 PM 82.0 °F 86.7 °F 72.0 °F 71% 29.96 in 10.0 mi SE 11.5 mph - N/A   Scattered Clouds
2:54 PM 80.1 °F 83.8 °F 72.0 °F 76% 29.94 in 10.0 mi South 6.9 mph - N/A   Mostly Cloudy
3:54 PM 82.9 °F 87.5 °F 71.1 °F 67% 29.92 in 10.0 mi SE 9.2 mph - N/A   Mostly Cloudy
4:54 PM 84.0 °F 89.6 °F 72.0 °F 67% 29.91 in 10.0 mi SE 8.1 mph - N/A   Scattered Clouds
5:54 PM 82.9 °F 87.0 °F 70.0 °F 65% 29.91 in 10.0 mi ESE 9.2 mph - N/A   Mostly Cloudy
6:54 PM 82.0 °F 86.3 °F 71.1 °F 69% 29.91 in 10.0 mi SE 6.9 mph - N/A   Clear
7:54 PM 80.1 °F 83.8 °F 72.0 °F 76% 29.92 in 10.0 mi East 6.9 mph - N/A   Scattered Clouds
8:54 PM 78.1 °F - 72.0 °F 81% 29.93 in 10.0 mi East 6.9 mph - N/A   Partly Cloudy
9:54 PM 75.9 °F - 72.0 °F 87% 29.93 in 10.0 mi East 12.7 mph - N/A   Mostly Cloudy
10:37 PM 73.9 °F - 71.1 °F 91% 29.96 in 10.0 mi East 12.7 mph - N/A   Scattered Clouds
10:54 PM 73.9 °F - 71.1 °F 91% 29.93 in 10.0 mi East 10.4 mph - N/A   Mostly Cloudy
11:54 PM 73.0 °F - 70.0 °F 90% 29.92 in 10.0 mi East 12.7 mph - N/A   Overcast